Showing default

GAOFEN 1-04, 43262

Orbit data source: Space-Track

GAOFEN 1-04, 43262 is a payload satellite owned by GGKGJ (CN) in SSO that was launched on Sat, 31 Mar 2018 UTC via a CHANG ZHENG 4C launch vehicle from the Taiyaun Space Center, China (TSC). Payload-class satellites include a variety of spacecraft equipped with specific instruments for various scientific and technological missions. These include communications satellites like Starlink; space stations such as the ISS; scientific satellites like the Hubble; Earth observation satellites from companies like Planet Labs, Umbra, and HawkEye 360; GPS; miniature CubeSats for education and research; and military/defense satellites.

Loading next visibility...
Identifier
43262, 2018-031D
Orbit
SSO
Country
Flag of CNCN / PRC
Related business
Manufacturer
DFH
Mission
Operational Civil Imaging
Bus & Motor
CAST-2000, AOCS
Mass
805 kg wet, ~700 kg dry
Launch date (UTC)
2018-03-31 (8 years ago)
Launch vehicle
CHANG ZHENG 4C
Launch site
Taiyaun Space Center, China (TSC)
Object type
Payload
Rocket body
Debris
Shape & HBR
Box + 2 Pan, 2.0 m
Radar Cross Section
4.991 m², Large (>1 m²)

Expand to show TLE details & history
Last TLE update: 22 hours ago

TLE from 22 hours ago
0 GAOFEN 1-04
1 43262U 18031D   26172.52195146  .00000393  00000-0  63905-4 0  9993
2 43262  98.0522 235.0866 0002130  73.2596 286.8847 14.76438382443328
Epoch: 2026-06-21T12:31Z
TLE epoch observation values (Epoch: 2026-06-21T12:31:36.606Z)
Latitude
-0.00002°
Longitude
137.46306°
Altitude
643.167 km
Speed
7.537 km/s
True Right ascension
15h 40m 20s
True Declination
0° 00' 00"
Sunlit
Object was in full shadow at epoch
Visualization orbit readout
Latitude
Unknown
Longitude
Unknown
Altitude
Unknown
Speed
Unknown
Apparent Right ascension
Unknown
Apparent Declination
Unknown
Sunlit
N/A
Visualization observer readout
Local Sidereal Time
21:36:45
Azimuth
Unknown
Elevation
Unknown
Doppler factor
Unknown
Orbital elements
Apogee altitude
639.136 km
Perigee altitude
636.147 km
Semi-major axis
7,015.779 km
Eccentricity
0.00021
Inclination
98.0522°
RAAN
235.0866°
Arg. of periapsis
73.2596°
True anomaly
286.86134°
Mean anomaly
286.8847°
Eccentric anomaly
286.87302°
Mean motion
3.69343 °/min
Orbital period
97.47 mins
BSTAR
0.000063905
Loading maneuver chart data...
Computing Atmospheric mass density...
Loading historical data...
Loading historical data...
Loading historical data...
Loading historical data...
Loading historical data...
Loading historical data...
Loading historical data...

Documentation

Showing up to 5 results
|